Starlink 1277

operational
NORAD ID: 45369 Int'l Des: 2020-019 Owner: SPXS Country: US Constellation: starlink
LEOCIRCULARSTARLINK_TYPE

Über Starlink 1277

Beschreibung wird geladen...

Live-Position

3D-Globus wird geladen...

Nächste Überflüge

Höhenverlauf

Altitude vs Time

uPlot chart will show altitude changes over time

Zweizeiliger Elementsatz

1 45369U 20019K 25304.49994372 -.00002712 00000-0 -16321-3 0 9990
2 45369 53.0556 27.1997 0001305 98.2513 261.8624 15.06399932310252
Epoch: 31. Okt. 2025 • Age: 31 hours

Aktueller Status

Höhe 548.7 km
Geschwindigkeit 7.59 km/s
Subsatellitenpunkt 32.86°N, 151.67°W
Startdatum 18. März 2020
Alter 5.6 years
Typ internet

Technische Details

Klassifizierung Payload
Masse 260.00 kg
Trockenmasse 248.00 kg
Gesamtmasse 260.00 kg
Länge 0.20 m
Durchmesser 2.80 m
Spannweite 9.00 m
Form Box + pan
Hersteller SPXS
Bus-Typ Starlink
Phasenstatus In Orbit
Besitzer/Staat SPXS/US

Große Konstellationen

Loading constellations...